Overview Statistics Trail Chart Weather Telemetry Raw packets
 

This is the latest recevied weather packets stored in our database for station/object KF6RAL-6. If no packets are shown the sender has not sent any weather packets the latest 10 day(s).

<< 74 75 76 77 78 79 >>
Time Temp. Humidity Pressure Rain* Wind** Luminosity Snow
1787870317 31.11° C 34% 1015.2 hPa 0 mm - - -
1787869897 31.67° C 34% 1015.1 hPa 0 mm - - -
1787869475 31.67° C 35% 1015.2 hPa 0 mm - - -
1787869054 32.22° C 34% 1015.8 hPa 0 mm - - -
1787868633 32.78° C 32% 1015.9 hPa 0 mm - - -
1787868212 32.78° C 28% 1015.3 hPa 0 mm - - -
1787867791 32.78° C 30% 1015.3 hPa 0 mm - - -
1787867370 33.33° C 29% 1016 hPa 0 mm - - -
1787866949 33.33° C 31% 1015.9 hPa 0 mm - - -
1787866528 33.89° C 25% 1015.9 hPa 0 mm - - -
1787866108 33.89° C 25% 1016.1 hPa 0 mm - - -
1787865686 33.89° C 25% 1016 hPa 0 mm - - -
1787865265 34.44° C 25% 1016.2 hPa 0 mm - - -
1787864847 34.44° C 25% 1016.4 hPa 0 mm - - -
1787864424 34.44° C 26% 1016.3 hPa 0 mm - - -
1787864002 33.89° C 27% 1016.2 hPa 0 mm - - -
1787863586 32.78° C 30% 1016.4 hPa 0 mm - - -
1787863160 32.22° C 31% 1016.9 hPa 0 mm - - -
1787862739 31.67° C 30% 1017 hPa 0 mm - - -
1787862318 31.11° C 32% 1016.6 hPa 0 mm - - -
1787861897 30.56° C 34% 1016.8 hPa 0 mm - - -
1787861476 30° C 38% 1016.8 hPa 0 mm - - -
1787861055 29.44° C 39% 1016.8 hPa 0 mm - - -
1787860634 28.89° C 43% 1017 hPa 0 mm - - -
1787860213 28.89° C 43% 1017 hPa 0 mm - - -

* Rain latest hour (hover to see other rain measurements)
** Current wind speed in m/s (hover to see current wind gust speed)